Regional Weather Roundup
Issued by NWS Upton, NY

Current Version | Previous Version | Text Only | Print | Product List | Glossary On
Versions: 1 2 3 4 5 6 7 8 9 10 11 12 13 14 15 16 17 18 19 20 21 22 23 24 25 26 27 28 29 30 31 32 33 34 35 36 37 38 39 40 41 42 43 44 45 46 47 48 49 50
000
ASUS41 KOKX 260505
RWROKX

REGIONAL WEATHER ROUNDUP
NATIONAL WEATHER SERVICE NEW YORK NY
100 AM EDT TUE JUL 26 2016

NOTE: "FAIR" INDICATES FEW OR NO CLOUDS BELOW 12,000 FEET WITH NO
SIGNIFICANT WEATHER AND/OR OBSTRUCTIONS TO VISIBILITY.

NYZ071-072-176-178-NJZ106-104-260600-
NEW YORK CITY METRO AREA

CITY           SKY/WX    TMP DP  RH WIND       PRES   REMARKS
Central Park   PTCLDY    74  71  91 VRB6      29.90F
LaGuardia APRT PTCLDY    77  71  82 W8        29.86F
Kennedy INTL   PTCLDY    75  72  90 W14       29.87F
Newark/Liberty MOCLDY    75  72  90 W9        29.87F
Bronx Bot Gard   N/A     75  70  83 W1        29.89R
Wall St Helipt MOCLDY    75  73  94 W8        29.88F
Teterboro      CLEAR     74  70  87 W3        29.87S
$$

NYZ177-179-078>081-260600-
LONG ISLAND NEW YORK

CITY           SKY/WX    TMP DP  RH WIND       PRES   REMARKS
Farmingdale    PTCLDY    74  72  93 W12       29.86F
MacArthur/ISP  CLEAR     73  71  93 W13       29.84F
Shirley        CLEAR     74  71  91 W8        29.85F
Riverhead      NOT AVBL
Westhampton    CLEAR     73  70  90 W8        29.85F
Southhampton     N/A     72  70  94 NW5       29.80S
Bridgehampton    N/A     70  70 100 S1        29.83F
East Hampton   FAIR      71  69  95 W7        29.83F
Montauk          N/A     73  70  90 NW7       29.84F
$$

NYZ052-065-067-260600-
HUDSON VALLEY

CITY           SKY/WX    TMP DP  RH WIND       PRES   REMARKS
White Plains   MOCLDY    73  71  93 W10       29.87F
Newburgh       MOCLDY    70  70 100 W9        29.90
Montgomery     CLEAR     68  67  96 S5        29.88F
Poughkeepsie   MOCLDY    72  69  90 S6        29.86F
Albany         CLOUDY    73  69  87 SE3       29.84F
$$

NJZ001-105-106-008-010-013-015-019>022-104-260600-
NEW JERSEY

CITY           SKY/WX    TMP DP  RH WIND       PRES   REMARKS
Newark/Liberty MOCLDY    75  72  90 W9        29.87F
Teterboro      CLEAR     74  70  87 W3        29.87S
Caldwell       CLEAR     73  71  93 CALM      29.89S
Morristown     CLEAR     72  68  88 W5        29.89S
Somerville     CLEAR     73  70  90 CALM      29.88F
Linden         MOCLDY    74  71  91 CALM      29.90F
Sussex         PTCLDY    70  69  97 CALM      29.90F
Abdover          N/A     70  68  93 SW6       29.92S
Trenton        PTCLDY    73  71  93 NW5       29.89F
Millville      PTCLDY    74  71  91 CALM      29.90S
Atlantic City  CLOUDY    75  72  90 S7        29.89F
Wrightstown    CLEAR     72  71  98 W3        29.86F
Toms River     CLOUDY    73  71  93 W3        29.88F
Belmar         PTCLDY    72  72 100 W6        29.88F
$$

PAZ047>061-062-071-260600-
EASTERN PENNSYLVANIA

CITY           SKY/WX    TMP DP  RH WIND       PRES   REMARKS
Philadelphia   PTCLDY    75  73  93 W8        29.91F
Allentown      CLEAR     69  67  93 CALM      29.92F
Scranton       CLEAR     69  67  93 SW7       29.94R
$$

CTZ002-004>006-009-010-012-RIZ004-006-007-MAZ004-011-015-260600-
SOUTHERN NEW ENGLAND
 IN CT

CITY           SKY/WX    TMP DP  RH WIND       PRES   REMARKS
Bradley INTL   CLEAR     75  66  73 W10       29.82S
Hartford       CLEAR     75  69  81 SW5       29.82F
Danbury        PTCLDY    70  68  93 SW3       29.88F
Wtrbury/Oxford   N/A     70  64  83 W5        29.88S
Bridgeport     CLOUDY    74  71  91 W7        29.85F
Meriden        CLEAR     71  68  90 CALM      29.84F
New Haven      CLEAR     72  69  90 CALM      29.84F
Chester        FAIR      70  70 100 VRB3      29.84F
Groton         PTCLDY    75  70  84 W7        29.81F
Wilimantic     NOT AVBL

 IN RI

CITY           SKY/WX    TMP DP  RH WIND       PRES   REMARKS
Providence     CLOUDY    76  68  76 W7        29.81S
Block Island   CLOUDY    70  69  97 W10G16    29.83F
Westerly       PTCLDY    74  70  87 CALM      29.83F
 IN MA

CITY           SKY/WX    TMP DP  RH WIND       PRES   REMARKS
Boston         CLEAR     80  69  69 W9        29.76S
Worchester     CLEAR     72  67  84 W14       29.83S
Westfield      CLEAR     75  67  76 SW9       29.82S
Provincetown   CLOUDY    72  71  97 SW10      29.77F
Nantucket      CLOUDY    72  71  97 W9        29.81R FOG
$$

ANZ330-335-338-340-345-350-353-355-260600-
COASTAL MARINE OBSERVATIONS


STATION/POSITION TIME  SKY/WX   TEMP    WIND        PRES    VSBY  WAVE
                                AIR SEA DIR/SP/G                  HT/PER
                 (UTC)          (F)     (DEG/KT/KT) (MB)    (MI)  (FT/S)
NY HARB ENTRANCE 0350            74 72  230/ 16/ 19 1011.0          2/ 4
20S FIRE ISLAND  0350            74 73  220/ 16/ 17 1010.3          2/ 4
GREAT SOUTH BAY  0400            77 81  270/ 17/ 21   N/A
23 SSW MONTAUK P 0350            75 73  240/ 14/ 16 1010.2          3/ 4
15 E BARNEGAT LI 0422               75                N/A           2/ 6
HUDSON CANYON    NOT AVBL
KINGS POINT      0400            75 74              1011.4
EXECUTION ROCKS  0400            74     210/  8/ 10   N/A
CENTRAL LI SOUND 0400            74 75  270/ 16/ 19   N/A           2/ 3
EASTERN LI SOUND 0400            71 68  280/ 10/ 14   N/A
ROBBINS REEF     0400            74     240/ 12/ 14 1011.3
$$


>>>>>>>>>>>>>>>>>>>>>>>>>>>> KEY <<<<<<<<<<<<<<<<<<<<<<<<<<<
>                                                          <
>     SKY/WX - Sky Condition/Present Weather               <
>     TMP    - Temperature in Fahrenheit                   <
>     DP     - Dew Point in Fahrenheit                     <
>     RH     - Relative Humidity in Percent                <
>     WIND   - Direction (from) and Speed in MPH           <
>     PRES   - Mean Sea Level Pressure (inches of Hg)      <
>     WCI    - Wind Chill Index                            <
>     VSB    - VISIBILITY IN MILES                         <
>     HX     - HEAT INDEX                                  <
>     TC     - TEMPERATURE IN CELSIUS                      <
>     VRB    - VARIABLE WIND DIRECTION                     <
>                                                          <
>>>>>>>>>>>>>>>>>>>>>>>>>>>> KEY <<<<<<<<<<<<<<<<<<<<<<<<<<<



USA.gov is the U.S. government's official web portal to all federal, state and local government web resources and services.